Temperature
23 23 23 24 26 27 28 30 32 32 32 32 31 31 30 30 28 24 24 25 24 23 23 23 22 22 22 21 21 21 21 21 21 20 20 20 20 20 19 19 19 19 19 19 19 19 19 19 19
23 22 24 26 26 27 29 31 32 33 32 31 31 30 31 30 28 26 25 24 23 23 23 23 22 22 22 21 21 21 21 21 20 20 20 20 20 19 19 19 19 19 19 19 19 19 19 19 19
23 23 25 27 26 27 29 32 32 33 31 31 31 31 30 29 28 26 25 24 23 22 23 23 22 22 22 21 21 21 21 20 20 20 20 20 20 19 19 19 19 19 19 19 19 19 18 18 19
22 24 26 27 27 29 31 32 33 32 31 31 31 31 30 29 27 26 25 24 23 22 22 23 22 22 21 21 21 21 20 20 20 20 20 20 20 19 19 19 19 19 19 19 19 18 18 18 18
23 25 26 27 28 30 32 33 32 32 32 31 31 30 29 28 26 25 24 24 23 22 21 23 22 22 21 21 21 21 20 20 20 20 20 20 19 19 19 19 19 19 19 19 18 18 18 18 18
25 27 26 27 29 31 32 32 32 32 31 31 31 30 29 27 26 25 24 23 23 22 21 22 22 21 21 21 21 20 20 20 20 20 20 19 19 19 19 19 19 19 19 19 18 18 18 18 18
25 27 27 28 29 31 32 32 31 31 31 31 31 30 29 26 25 25 24 23 23 22 21 22 21 21 21 21 20 20 20 20 20 20 19 19 19 19 19 19 19 19 19 19 18 18 18 18 18
26 27 27 28 29 30 32 31 31 30 30 30 30 30 28 25 25 24 23 23 22 21 21 21 21 21 21 20 20 20 20 20 20 19 19 19 19 19 19 19 19 18 18 18 18 18 18 18 18
26 26 26 28 29 30 31 31 30 30 30 30 30 29 27 25 24 24 23 23 22 21 20 21 21 20 20 20 20 20 20 19 19 19 19 19 19 19 19 19 19 18 18 18 18 18 18 18 18
27 26 27 29 30 30 30 30 30 30 30 29 29 29 27 26 25 24 23 23 22 21 20 20 20 20 19 19 19 19 19 19 19 19 19 19 19 18 18 18 18 18 18 18 18 18 18 18 18
27 27 28 29 29 29 29 29 29 29 29 29 29 29 28 26 25 25 24 23 23 22 21 20 20 19 19 19 19 19 19 19 19 19 19 19 18 17 17 17 18 18 18 18 18 18 18 18 17
28 28 28 29 28 28 28 28 28 29 29 29 29 28 28 27 26 25 25 24 23 22 21 20 20 19 19 19 19 19 19 19 19 18 19 18 18 17 17 18 18 18 18 18 18 18 18 18 17
28 28 28 28 28 27 27 28 28 28 28 28 28 28 27 26 26 24 24 24 23 22 21 21 20 20 19 19 19 18 18 18 19 18 18 18 18 18 17 17 17 17 17 17 17 17 17 17 17
28 28 28 28 28 27 28 28 28 28 28 28 27 27 26 26 25 24 24 23 22 21 21 20 20 19 19 19 19 18 18 18 18 18 18 18 18 18 18 18 17 17 17 17 17 17 18 18 17
27 27 27 28 28 28 28 27 28 27 27 27 27 26 25 24 24 23 23 22 21 21 20 20 20 19 19 18 18 18 18 18 18 18 18 18 18 18 18 18 18 18 18 18 17 17 18 17 17
27 26 26 28 28 28 27 26 28 27 27 26 26 25 24 23 22 22 21 21 20 20 20 19 19 19 18 18 18 18 18 18 18 18 18 18 18 17 17 18 17 18 17 17 17 17 17 17 17
26 26 26 28 29 28 27 26 27 27 26 25 24 23 22 21 21 20 20 20 20 19 19 19 19 19 18 18 18 18 18 18 18 18 18 18 18 17 17 17 17 17 17 17 17 17 17 17 17
26 26 27 27 28 28 27 27 27 26 25 25 23 22 21 20 19 19 19 19 19 19 19 18 18 18 18 18 17 17 17 17 17 17 17 17 17 17 17 17 17 17 17 17 17 17 17 17 17
26 26 26 27 28 27 26 26 26 25 24 23 22 21 19 18 17 17 18 18 18 18 18 18 18 18 18 17 17 17 17 16 17 16 16 17 17 17 17 17 17 17 17 17 17 17 17 16 16
26 25 26 27 27 26 26 25 25 24 24 22 21 20 18 17 16 16 16 16 16 17 17 17 17 17 17 17 17 16 16 16 16 16 16 16 16 16 16 16 17 17 17 16 16 16 16 16 16
26 25 26 26 26 26 25 24 23 23 22 21 20 18 17 16 15 15 15 15 15 16 16 16 16 17 16 16 16 16 16 16 15 16 16 16 16 16 16 16 16 16 16 16 16 16 16 16 16
25 26 26 26 25 25 25 22 21 21 20 20 18 17 16 15 14 14 14 14 14 15 15 15 16 16 16 16 16 15 15 15 15 15 15 15 15 15 15 15 16 16 16 16 16 16 16 15 15
26 27 26 25 24 24 24 22 21 20 19 18 17 16 15 14 14 13 13 13 13 14 14 15 15 15 15 16 16 15 15 15 15 15 15 15 15 15 15 15 15 15 15 15 15 15 15 15 15
26 26 25 24 24 22 23 21 20 19 18 17 16 15 14 13 13 12 12 12 12 13 14 14 14 14 14 15 15 15 15 14 14 14 14 14 14 14 14 14 14 14 14 14 14 14 14 14 14
26 24 22 20 20 20 21 21 19 19 18 17 15 14 13 13 12 12 12 12 12 12 13 13 13 13 13 14 14 14 14 14 14 13 13 13 13 13 13 13 13 13 13 13 13 14 13 13 13
25 24 21 19 19 19 19 19 17 18 17 16 14 13 12 12 11 11 10 11 11 11 12 12 13 13 13 13 13 13 13 13 12 12 12 12 12 12 12 12 12 12 12 12 12 12 12 12 12
24 24 24 22 21 19 19 18 17 17 16 15 14 13 12 11 10 10 10 10 10 10 11 11 12 12 12 12 12 12 12 12 11 11 11 11 11 11 11 11 11 11 11 11 11 11 11 11 11
26 25 24 22 20 19 18 18 16 16 15 15 14 13 11 10 10 10 10 10 10 10 10 10 11 11 11 11 11 11 11 10 10 11 11 10 10 10 10 10 10 10 10 10 10 10 10 10 10
25 24 24 23 22 19 18 17 17 16 16 15 14 12 11 10 9 9 9 9 9 9 9 9 9 10 10 10 10 9 9 9 9 9 9 9 9 9 9 9 9 9 9 9 9 9 9 9 9
25 24 24 22 21 21 19 17 17 16 15 14 13 11 10 10 9 9 9 9 8 8 8 8 8 9 9 9 9 9 9 8 8 8 8 8 8 8 8 8 8 8 8 8 8 8 8 8 8
Wind_Speed
10 14 11 9 8 11 18 20 14 7 1 4 4 4 6 5 6 7 6 7 18 22 21 21 21 22 22 22 21 20 19 18 17 16 15 14 14 13 13 13 12 12 12 11 11 11 11 11 10
11 14 11 9 10 14 17 17 13 4 5 4 2 1 3 4 9 10 9 11 19 21 20 20 21 22 23 22 21 21 20 19 18 17 16 15 14 13 13 12 12 11 11 11 11 11 10 10 10
11 16 10 10 16 18 19 9 4 1 4 1 3 2 2 3 8 8 12 14 18 20 19 21 22 22 22 23 22 21 21 20 19 17 16 15 14 13 13 12 12 11 11 11 11 11 10 10 9
8 10 8 11 18 21 22 15 5 3 2 2 4 2 1 6 6 9 13 15 18 19 20 21 21 22 22 22 23 22 21 20 19 18 17 15 14 13 13 12 11 11 11 11 11 10 10 9 9
11 9 13 15 19 19 17 13 6 5 6 4 4 5 2 8 12 12 11 13 17 19 19 21 20 21 22 22 22 22 21 20 19 18 17 15 14 13 13 12 11 11 11 11 10 10 9 9 8
10 10 14 17 19 18 15 11 8 8 10 9 7 7 3 10 12 11 12 11 14 18 19 20 20 21 21 21 22 21 21 20 19 18 17 16 15 14 13 13 12 11 11 10 10 9 9 8 7
13 14 16 18 17 15 10 6 6 8 10 10 9 7 4 11 11 9 12 11 13 17 19 17 19 19 19 20 20 21 20 20 19 18 16 16 15 14 13 12 12 11 11 10 9 9 8 7 6
14 13 18 19 17 15 9 4 5 8 10 10 8 6 4 11 12 10 11 12 13 16 18 17 17 18 18 18 19 20 19 19 19 18 16 15 14 14 13 13 12 11 11 10 10 9 8 7 6
15 14 16 17 15 11 6 4 5 6 9 11 9 4 8 14 13 10 11 11 12 14 17 17 18 17 17 18 18 18 18 18 18 17 16 16 14 14 13 14 14 12 11 11 10 9 8 8 8
13 14 18 15 11 10 10 7 7 8 10 10 10 7 10 13 13 12 13 14 15 16 17 16 18 18 17 16 17 15 15 16 16 15 16 14 14 14 14 16 16 14 12 11 11 10 9 9 10
15 18 17 15 10 9 11 12 11 11 12 11 9 7 6 9 10 12 13 14 15 17 16 16 16 15 15 12 13 11 12 14 15 16 17 15 13 12 11 12 13 13 13 12 12 11 11 12 11
16 16 15 13 11 9 11 13 13 13 12 11 9 7 5 6 6 8 10 13 13 15 17 17 17 16 15 12 11 9 9 10 10 13 16 12 6 6 8 8 11 12 12 11 12 10 13 12 11
14 15 14 13 12 12 13 14 14 14 13 11 9 7 5 5 5 6 6 9 12 13 15 15 13 13 9 8 10 10 7 9 10 11 15 13 6 6 6 5 9 11 12 10 8 9 7 6 6
12 12 13 13 13 13 14 14 15 14 13 10 9 6 5 5 2 2 3 4 8 11 11 11 10 11 9 7 7 7 7 7 10 9 12 13 9 5 5 5 4 5 7 8 6 5 4 3 2
11 13 15 16 14 14 12 15 15 12 9 8 7 3 2 3 3 3 4 2 6 7 7 6 8 9 9 9 8 5 4 6 5 6 10 11 9 6 4 4 4 4 4 4 3 2 1 3 3
12 15 17 16 14 11 10 13 10 6 5 5 3 2 2 3 6 7 8 4 3 5 7 7 9 10 8 7 5 4 4 4 4 5 7 9 8 7 4 4 4 5 4 3 2 2 2 2 2
15 15 15 9 9 7 10 10 6 1 3 3 0 1 5 5 8 10 8 6 4 4 6 6 5 7 7 5 4 4 2 2 2 4 5 7 8 7 5 3 3 4 2 2 4 3 2 2 2
10 11 10 7 5 7 11 11 6 3 3 1 2 3 6 8 10 10 9 8 7 6 5 5 4 5 6 5 3 3 2 0 1 1 2 4 6 7 6 4 4 4 3 3 3 3 2 2 2
12 12 13 12 7 8 12 12 7 4 2 2 2 4 7 8 10 12 11 10 10 9 7 4 2 2 4 5 5 4 3 2 1 0 3 4 5 6 5 5 5 4 4 4 5 4 4 3 2
11 13 14 12 9 9 12 11 8 5 4 3 4 5 7 7 10 12 12 11 10 9 9 6 4 1 2 3 4 3 2 2 3 2 1 0 2 4 5 5 4 4 4 4 4 4 3 3 3
13 13 14 14 12 12 14 13 8 4 3 4 6 7 7 7 9 10 11 11 10 10 9 7 6 4 2 2 3 4 3 2 2 3 2 3 3 2 1 2 2 2 3 3 2 2 3 3 2
14 13 13 15 15 13 11 11 7 4 3 4 5 7 7 8 9 9 9 9 10 9 8 7 6 6 4 3 4 4 3 3 3 4 4 5 6 6 5 4 3 3 3 3 3 3 1 2 2
14 14 14 14 15 16 12 10 7 5 5 3 6 8 8 9 9 9 8 9 10 9 9 7 7 7 6 4 5 5 5 5 5 6 7 7 7 8 8 6 5 5 5 5 6 5 5 4 3
13 15 15 13 12 15 12 11 7 5 7 6 8 8 8 9 10 10 9 9 9 10 9 9 9 9 8 8 8 8 8 8 8 7 7 7 6 7 10 9 8 8 7 8 8 8 10 8 7
11 11 9 8 7 10 10 7 2 4 10 12 12 9 9 9 10 10 11 10 10 11 10 10 10 11 10 9 9 9 10 10 10 9 9 8 7 8 10 9 9 9 9 9 9 10 10 9 9
10 10 7 8 8 8 6 5 1 7 11 14 13 11 10 9 10 11 10 10 11 11 11 11 11 12 11 10 10 10 11 9 9 11 10 10 9 9 9 10 10 10 11 11 10 10 10 9 9
10 10 8 9 12 8 4 2 3 9 11 12 12 11 11 10 11 11 11 11 11 11 11 11 12 12 12 12 12 13 13 12 12 11 11 10 9 9 10 11 11 10 10 10 9 10 10 9 9
10 10 8 7 7 6 5 3 0 6 10 10 10 11 11 11 11 11 11 11 11 11 11 11 12 13 13 12 12 12 13 12 11 12 12 11 10 9 10 10 10 10 9 9 9 9 9 10 9
8 8 8 8 7 7 6 2 2 7 9 12 11 11 11 11 10 10 10 11 11 11 12 12 12 13 12 12 12 12 12 12 12 11 11 10 9 9 10 10 10 10 10 9 9 9 9 9 9
8 8 8 8 8 8 6 2 2 4 8 11 13 12 11 11 11 10 11 11 11 12 12 12 12 13 13 12 12 12 12 12 12 12 10 10 10 9 9 9 10 10 9 8 9 9 9 9 10
Wind_Direction
264 256 250 255 247 243 251 259 259 248 143 59 33 6 354 17 57 120 181 160 127 132 140 144 145 149 151 151 150 148 147 145 143 141 139 136 131 127 123 120 117 117 118 117 116 116 116 115 114
263 255 242 247 250 248 248 248 257 247 91 69 20 307 305 45 81 121 140 135 133 136 146 148 148 152 153 154 153 151 150 149 148 146 145 142 137 133 129 126 122 121 121 121 120 119 119 120 121
257 259 247 241 242 253 267 289 297 82 95 172 269 243 289 77 88 112 127 140 139 142 149 145 151 153 155 155 155 154 153 152 151 150 149 146 142 138 135 131 128 127 127 127 125 123 123 125 127
240 232 235 244 246 245 255 269 272 243 226 225 255 244 197 84 91 107 129 150 146 147 146 147 153 154 156 157 157 156 155 155 154 153 152 149 146 143 140 137 135 134 133 132 129 127 129 130 129
235 239 232 247 256 261 266 277 278 268 263 254 256 263 120 102 105 115 139 153 151 149 145 150 154 155 157 158 158 157 157 156 156 155 154 152 150 148 146 143 142 140 138 135 132 131 131 131 133
226 232 240 247 253 254 257 267 273 266 270 265 247 245 156 126 122 136 143 159 155 148 144 149 154 157 158 159 159 158 158 157 156 156 156 154 153 152 151 150 149 148 144 141 138 136 136 136 140
242 246 252 259 267 270 265 270 275 272 267 266 266 257 153 119 118 133 139 158 152 148 144 152 158 160 161 161 160 159 159 157 157 157 157 157 157 158 158 156 156 155 152 150 149 148 145 146 150
243 261 267 267 270 275 283 283 270 272 274 279 279 268 135 124 126 138 150 160 157 151 149 157 162 164 164 165 164 161 160 159 158 159 162 162 163 165 165 164 163 162 161 161 161 161 160 162 168
241 254 261 265 273 281 295 287 273 265 266 270 274 262 124 130 134 151 161 167 163 158 152 163 167 168 170 169 168 165 163 162 161 164 167 166 172 174 176 176 166 170 171 171 171 173 177 183 194
232 245 253 266 296 313 317 307 290 276 260 255 253 227 145 145 152 173 178 180 174 165 163 171 174 172 175 174 165 170 171 169 175 172 173 183 187 184 182 171 167 175 179 180 183 186 194 208 211
231 245 267 284 301 305 299 295 284 272 266 262 258 235 192 167 174 189 190 183 180 174 171 176 180 174 179 173 164 175 179 174 189 180 179 194 192 186 168 158 169 180 185 191 189 195 210 215 222
240 255 269 282 297 291 281 280 278 272 270 275 277 278 243 204 202 207 201 183 182 177 177 179 181 176 182 172 168 177 183 173 187 181 182 194 190 186 163 167 178 186 194 199 188 205 211 219 222
241 253 264 266 269 268 269 270 272 271 271 273 277 270 268 243 222 218 204 185 180 182 183 176 177 175 174 161 169 179 186 176 182 180 187 190 187 197 177 180 182 192 193 194 200 207 200 204 217
265 264 266 265 261 260 260 263 261 259 258 258 260 263 257 257 243 210 156 171 175 176 183 172 165 164 162 163 172 175 185 170 183 179 187 196 193 189 178 180 186 211 194 189 200 214 185 184 218
263 272 268 255 248 250 256 258 252 253 249 250 254 262 284 316 347 28 54 103 166 163 166 159 158 163 167 174 179 177 184 176 178 171 177 199 207 181 176 179 182 224 217 181 175 222 194 186 206
255 254 257 244 226 230 243 265 269 244 228 244 248 302 359 37 32 35 36 44 102 143 155 160 172 167 167 163 174 187 190 177 179 164 172 199 206 181 186 186 192 213 216 177 172 214 199 193 197
245 248 257 244 204 227 239 264 274 251 217 237 220 16 42 50 47 42 38 47 53 106 130 146 151 150 153 161 182 208 196 177 165 164 178 195 204 192 190 203 194 200 202 186 199 185 202 196 204
280 261 274 279 230 239 252 256 245 231 230 189 88 77 63 52 43 39 36 42 36 52 84 119 148 153 150 153 174 225 222 159 86 136 208 194 205 210 197 197 196 200 194 200 198 170 182 200 187
303 302 297 292 284 273 266 267 256 234 212 162 111 91 74 62 53 45 34 36 34 37 51 75 101 144 155 162 177 207 214 200 147 173 229 195 206 215 212 211 197 201 198 203 196 190 191 193 175
283 281 281 285 281 270 271 270 261 249 223 184 123 93 88 71 56 46 32 30 37 34 32 41 41 35 169 178 174 183 165 155 159 166 47 88 204 210 213 209 196 201 198 201 190 183 183 184 168
268 276 286 292 288 262 261 266 271 246 171 124 112 91 82 70 62 52 37 25 29 31 23 22 28 33 49 125 153 149 141 157 160 117 85 49 55 42 120 152 163 164 169 172 171 177 190 181 149
275 281 286 286 284 280 270 270 258 215 183 141 116 103 85 78 69 59 46 30 25 24 20 17 30 38 37 84 132 145 142 132 122 109 98 64 55 52 53 75 90 95 104 110 109 91 112 137 143
283 291 289 284 280 278 275 271 267 171 200 165 111 96 81 78 75 66 54 41 27 20 22 25 37 46 36 60 100 122 114 108 102 99 84 68 56 52 54 60 74 80 80 83 81 75 73 78 81
285 287 284 283 279 273 279 276 255 185 182 160 121 106 92 83 72 63 60 53 39 26 24 30 43 46 40 53 69 88 102 109 109 99 91 76 64 55 54 61 66 71 72 73 76 76 73 73 75
277 280 287 295 288 279 312 302 293 157 159 149 139 129 103 89 77 62 48 46 40 33 25 37 50 53 48 60 73 84 93 98 97 91 84 78 69 61 57 62 64 70 73 74 75 74 72 71 72
283 274 268 280 281 278 300 285 61 105 122 124 125 119 103 88 77 68 55 49 43 40 37 45 57 60 58 62 72 76 79 80 80 80 83 79 76 72 70 70 67 69 74 76 76 78 75 71 71
281 278 273 274 280 284 258 230 116 112 116 120 123 118 108 94 82 73 63 56 51 51 50 51 59 64 65 69 74 73 77 82 83 85 85 84 82 82 78 78 76 71 71 73 75 77 73 70 67
262 283 292 290 301 296 286 264 238 160 156 144 134 122 108 98 87 78 70 64 58 59 64 62 64 69 69 72 77 81 80 83 86 85 84 85 85 84 83 81 81 78 74 74 77 77 75 76 72
278 276 286 294 303 305 305 307 168 179 179 158 134 119 112 102 91 83 78 74 72 71 68 67 69 73 73 76 79 82 84 85 85 84 86 88 88 87 85 84 81 78 75 74 77 79 76 75 71
290 290 291 293 302 304 305 314 59 131 151 137 120 110 103 99 94 89 85 81 76 73 72 71 72 75 75 77 78 79 81 83 84 85 85 86 86 85 84 83 82 81 78 74 77 80 76 74 70
Height
1506 1508 1509 1510 1505 1498 1491 1472 1461 1461 1463 1467 1471 1474 1476 1478 1485 1499 1495 1496 1497 1497 1501 1504 1507 1510 1514 1517 1521 1524 1527 1530 1532 1535 1537 1539 1541 1543 1545 1547 1549 1551 1553 1554 1556 1557 1558 1560 1561
1505 1508 1510 1506 1501 1499 1483 1464 1460 1460 1465 1470 1473 1476 1477 1479 1484 1490 1493 1497 1497 1497 1501 1504 1507 1510 1514 1517 1521 1524 1527 1530 1533 1536 1538 1540 1542 1544 1546 1548 1550 1552 1553 1555 1556 1558 1559 1560 1561
1504 1506 1507 1500 1497 1492 1476 1459 1459 1460 1466 1471 1473 1475 1478 1481 1485 1489 1493 1496 1498 1498 1501 1503 1507 1510 1514 1517 1521 1524 1527 1530 1533 1536 1539 1541 1543 1545 1547 1549 1550 1552 1554 1555 1557 1558 1559 1560 1562
1504 1505 1502 1495 1489 1476 1467 1459 1459 1462 1467 1470 1473 1475 1478 1482 1486 1489 1492 1496 1498 1499 1500 1503 1507 1510 1514 1517 1520 1524 1527 1531 1533 1536 1539 1541 1543 1545 1547 1549 1551 1553 1554 1555 1557 1558 1560 1561 1562
1504 1501 1497 1492 1481 1467 1459 1457 1459 1463 1466 1470 1473 1475 1478 1483 1486 1488 1492 1496 1498 1499 1500 1503 1506 1510 1514 1517 1520 1524 1527 1531 1534 1536 1539 1541 1544 1546 1547 1549 1551 1553 1554 1556 1557 1558 1560 1561 1562
1500 1494 1495 1490 1476 1463 1458 1458 1461 1464 1467 1469 1471 1474 1479 1482 1485 1488 1492 1495 1497 1498 1499 1502 1506 1510 1513 1517 1520 1524 1527 1531 1534 1537 1539 1541 1544 1546 1547 1549 1551 1553 1554 1556 1557 1558 1560 1561 1563
1497 1490 1487 1480 1470 1461 1456 1458 1462 1465 1467 1469 1470 1472 1477 1481 1484 1488 1491 1494 1496 1499 1499 1502 1506 1509 1513 1517 1520 1523 1527 1530 1533 1536 1539 1541 1543 1545 1547 1549 1551 1552 1554 1556 1557 1558 1560 1561 1563
1493 1489 1484 1477 1471 1463 1457 1460 1465 1468 1469 1470 1471 1472 1476 1482 1484 1488 1491 1493 1496 1498 1499 1502 1505 1508 1512 1516 1519 1523 1527 1530 1533 1536 1539 1541 1543 1545 1547 1549 1550 1552 1554 1555 1557 1558 1560 1561 1563
1490 1490 1486 1475 1467 1461 1458 1462 1466 1468 1471 1471 1472 1473 1477 1480 1483 1488 1491 1493 1495 1497 1497 1500 1504 1507 1511 1514 1518 1522 1525 1529 1532 1535 1537 1540 1542 1544 1546 1548 1550 1551 1553 1555 1556 1558 1560 1561 1563
1486 1486 1478 1468 1464 1462 1462 1464 1467 1468 1469 1470 1472 1474 1476 1479 1482 1486 1488 1491 1493 1495 1496 1499 1503 1506 1510 1514 1516 1520 1523 1527 1530 1533 1536 1539 1541 1543 1545 1547 1549 1550 1552 1554 1555 1557 1559 1560 1562
1480 1479 1471 1467 1466 1468 1469 1469 1468 1469 1469 1469 1470 1472 1474 1477 1480 1484 1486 1488 1490 1492 1494 1498 1502 1505 1509 1513 1514 1518 1521 1524 1528 1531 1534 1537 1540 1543 1545 1546 1548 1549 1551 1552 1554 1556 1558 1559 1561
1475 1472 1470 1468 1469 1470 1471 1470 1469 1468 1468 1468 1469 1471 1472 1475 1478 1481 1482 1484 1487 1489 1492 1495 1498 1502 1507 1511 1513 1516 1519 1522 1525 1529 1532 1536 1539 1542 1543 1545 1546 1548 1549 1551 1553 1554 1556 1558 1561
1470 1470 1469 1469 1470 1471 1471 1470 1469 1468 1468 1468 1469 1470 1472 1473 1475 1477 1479 1481 1483 1486 1489 1491 1495 1500 1505 1509 1511 1514 1518 1520 1523 1527 1530 1534 1537 1540 1542 1543 1545 1547 1548 1550 1552 1553 1555 1558 1560
1467 1466 1466 1466 1466 1467 1467 1467 1466 1465 1466 1467 1468 1469 1470 1471 1472 1474 1476 1478 1479 1482 1485 1489 1492 1496 1502 1505 1508 1512 1515 1519 1521 1524 1527 1531 1534 1537 1540 1542 1544 1546 1547 1549 1551 1553 1555 1556 1558
1468 1468 1466 1463 1463 1463 1464 1464 1461 1461 1462 1464 1466 1467 1468 1470 1471 1473 1473 1475 1477 1479 1483 1487 1490 1493 1497 1501 1505 1509 1513 1516 1519 1521 1524 1528 1531 1534 1536 1538 1541 1543 1546 1547 1549 1551 1553 1554 1556
1466 1467 1466 1455 1455 1457 1464 1466 1456 1457 1460 1463 1465 1467 1467 1469 1471 1471 1472 1474 1475 1478 1480 1485 1487 1490 1494 1498 1502 1507 1510 1512 1515 1518 1520 1525 1528 1530 1532 1536 1538 1541 1543 1545 1547 1547 1549 1551 1553
1464 1466 1460 1450 1449 1452 1457 1461 1455 1458 1460 1463 1465 1467 1468 1470 1471 1472 1472 1473 1476 1478 1479 1483 1486 1488 1491 1496 1499 1503 1506 1509 1511 1515 1517 1520 1524 1527 1529 1532 1535 1538 1540 1542 1544 1546 1548 1549 1551
1462 1457 1453 1451 1447 1451 1455 1456 1455 1458 1460 1463 1466 1468 1469 1472 1473 1473 1474 1475 1477 1479 1481 1482 1485 1487 1490 1494 1497 1501 1503 1505 1507 1510 1513 1517 1521 1524 1526 1528 1531 1534 1536 1539 1541 1542 1544 1546 1548
1457 1458 1457 1451 1446 1450 1453 1454 1454 1457 1460 1463 1466 1469 1472 1475 1475 1476 1477 1477 1478 1479 1480 1481 1484 1487 1489 1491 1495 1497 1500 1502 1505 1507 1509 1513 1517 1520 1522 1524 1528 1530 1532 1535 1537 1539 1541 1543 1545
1459 1460 1457 1450 1446 1450 1453 1454 1454 1456 1459 1464 1468 1472 1475 1477 1477 1477 1479 1478 1479 1479 1480 1482 1484 1485 1488 1491 1493 1495 1497 1500 1503 1505 1507 1510 1513 1516 1518 1521 1523 1525 1528 1531 1533 1535 1538 1540 1542
1458 1458 1456 1454 1448 1447 1452 1457 1457 1458 1461 1466 1469 1474 1476 1477 1478 1478 1480 1481 1481 1480 1480 1481 1483 1485 1487 1489 1492 1494 1495 1499 1501 1503 1506 1508 1511 1512 1514 1516 1519 1521 1524 1527 1529 1531 1534 1535 1539
1459 1450 1450 1451 1454 1455 1453 1467 1461 1462 1465 1469 1471 1475 1478 1479 1479 1480 1481 1481 1481 1480 1481 1482 1483 1485 1487 1488 1491 1492 1493 1496 1498 1501 1504 1506 1508 1510 1511 1513 1515 1518 1520 1523 1525 1527 1529 1532 1534
1451 1446 1448 1450 1453 1456 1455 1464 1466 1462 1469 1472 1474 1478 1481 1481 1481 1482 1483 1482 1481 1482 1482 1482 1483 1485 1486 1487 1489 1491 1493 1496 1499 1500 1502 1504 1506 1508 1509 1511 1513 1515 1517 1519 1522 1524 1526 1529 1531
1446 1447 1448 1450 1452 1464 1458 1464 1467 1465 1469 1473 1476 1481 1483 1483 1483 1484 1485 1484 1483 1482 1483 1482 1483 1484 1485 1487 1488 1490 1492 1495 1497 1500 1501 1503 1504 1506 1507 1509 1511 1512 1515 1517 1519 1521 1524 1526 1529
1446 1456 1469 1475 1476 1472 1461 1464 1467 1462 1463 1469 1476 1482 1484 1484 1485 1484 1485 1485 1484 1484 1484 1483 1484 1484 1486 1487 1488 1490 1491 1493 1496 1498 1500 1502 1503 1505 1506 1508 1510 1511 1513 1516 1518 1520 1522 1525 1527
1446 1452 1474 1486 1484 1476 1469 1471 1471 1466 1468 1473 1478 1482 1484 1486 1486 1486 1486 1486 1486 1485 1485 1484 1484 1485 1487 1488 1490 1491 1492 1494 1496 1498 1501 1503 1504 1506 1507 1508 1510 1511 1513 1515 1517 1520 1521 1524 1526
1447 1447 1448 1461 1463 1470 1471 1470 1473 1470 1474 1477 1481 1483 1485 1487 1487 1488 1488 1488 1488 1488 1487 1486 1486 1487 1488 1490 1491 1492 1493 1495 1498 1500 1502 1504 1506 1508 1509 1510 1511 1513 1514 1516 1518 1520 1522 1524 1526
1439 1441 1447 1456 1470 1477 1474 1474 1476 1476 1477 1479 1482 1484 1486 1488 1489 1489 1490 1490 1490 1490 1490 1489 1489 1489 1491 1492 1493 1494 1496 1498 1500 1502 1504 1506 1508 1510 1511 1512 1513 1515 1517 1518 1520 1521 1524 1525 1527
1441 1442 1445 1449 1454 1469 1479 1479 1469 1472 1475 1478 1482 1485 1488 1490 1491 1492 1493 1493 1493 1494 1493 1494 1494 1493 1495 1496 1497 1497 1499 1502 1503 1505 1507 1509 1511 1513 1514 1515 1516 1518 1520 1522 1523 1524 1526 1527 1529
1437 1440 1444 1456 1459 1458 1469 1480 1468 1468 1474 1479 1483 1487 1490 1492 1493 1494 1496 1496 1497 1497 1497 1498 1498 1497 1499 1500 1501 1502 1504 1506 1507 1509 1511 1513 1515 1516 1517 1518 1520 1522 1523 1525 1526 1528 1529 1530 1531